Home   Weather   Inglewood   Past weeks

Flag for USA Past Weather in Inglewood, California, USA — Yesterday and Last 2 Weeks

Now
93 °F

Sunny.


Feels Like: 89 °F
Forecast: 63 / 90 °F
Wind: 12 mph from West

Location: Hawthorne Municipal Airport

Current Time: Sep 25, 2016 at 2:04:57 PM

Latest Report: Sep 25, 2016 at 12:53 PM


Visibility: 10 mi

Pressure: 29.95 "Hg

Humidity: 15%

Dew Point: 39 °F

Location of InglewoodLocation

Past Weather in Inglewood — Graph

°F

Inglewood Temperature Yesterday

Maximum temperature yesterday: 86 °F (at 11:53 AM)
Minimum temperature yesterday: 62 °F (at 5:53 AM)
Average temperature yesterday: 74 °F

High & Low Weather Summary for the Past Weeks

 TemperatureHumidityPressure
High93 °F (Sep 25, 12:53 PM)100% (Sep 18, 7:53 AM)30.09 "Hg (Sep 18, 7:53 AM)
Low60 °F (Sep 14, 5:53 AM)13% (Sep 25, 10:53 AM)29.83 "Hg (Sep 21, 4:53 PM)
Average70 °F70%29.95 "Hg
* Reported Sep 10 12:53 PM — Sep 25 12:53 PM, Inglewood, Weather by CustomWeather, © 2016

Note: Actual official high and low records may vary slightly from our data, if they occured in-between our weather recording intervals... More about our weather records

Advertising

Inglewood Weather History for the Previous 24 Hours

Scroll right to see more
 ConditionsComfort  
Time TempWeatherWind HumidityBarometerVisibility
12:53 PM
Sun, Sep 25
93 °FSunny.12 mph15%29.95 "Hg10 mi
11:53 AM92 °FSunny.5 mph13%29.98 "Hg10 mi
10:53 AM90 °FSunny.5 mph13%30.00 "Hg10 mi
9:53 AM85 °FSunny.3 mph19%30.01 "Hg10 mi
8:53 AM74 °FSunny.No wind36%30.01 "Hg10 mi
7:53 AM67 °FSunny.3 mph51%30.01 "Hg10 mi
6:53 AM64 °FSunny.No wind58%30.00 "Hg10 mi
5:53 AM64 °FClear.No wind63%29.97 "Hg10 mi
4:53 AM65 °FClear.No wind59%29.97 "Hg10 mi
3:53 AM66 °FClear.No wind56%29.96 "Hg10 mi
2:53 AM67 °FClear.No wind61%29.97 "Hg10 mi
1:53 AM68 °FClear.No wind57%29.98 "Hg10 mi
12:53 AM69 °FClear.No wind55%29.97 "Hg10 mi
11:53 PM
Sat, Sep 24
70 °FClear.No wind55%29.96 "Hg10 mi
10:53 PM72 °FClear.No wind49%29.96 "Hg10 mi
9:53 PM72 °FClear.No wind52%29.96 "Hg10 mi
8:53 PM73 °FClear.3 mph51%29.96 "Hg10 mi
7:53 PM74 °FClear.5 mph52%29.95 "Hg10 mi
6:53 PM76 °FClear.7 mph47%29.95 "Hg10 mi
5:53 PM80 °FSunny.9 mph35%29.94 "Hg10 mi
4:53 PM81 °FSunny.13 mph34%29.95 "Hg10 mi
3:53 PM83 °FSunny.13 mph30%29.95 "Hg10 mi
2:53 PM82 °FSunny.12 mph38%29.96 "Hg10 mi
Weather by CustomWeather, © 2016

See weather overviewHow to use our weather pages